Overview Statistics Trail Chart Weather Telemetry Raw packets
 

This is the latest recevied weather packets stored in our database for station/object EB1BWO-11. If no packets are shown the sender has not sent any weather packets the latest 10 day(s).

<< 4 5 6 7 8 9 10 >>
Time Temp. Humidity Pressure Rain* Wind** Luminosity Snow
1788490657 17.78° C 61% 1021.6 hPa - - - -
1788489757 17.78° C 62% 1021.7 hPa - - - -
1788488857 17.78° C 62% 1021.7 hPa - - - -
1788487957 18.33° C 62% 1021.9 hPa - - - -
1788487057 18.33° C 61% 1022 hPa - - - -
1788486157 18.33° C 63% 1022 hPa - - - -
1788485256 18.33° C 62% 1022.1 hPa - - - -
1788484356 18.33° C 62% 1022.2 hPa - - - -
1788483456 18.89° C 62% 1022.4 hPa - - - -
1788482556 19.44° C 60% 1022.5 hPa - - - -
1788481656 18.89° C 61% 1022.7 hPa - - - -
1788480756 18.33° C 64% 1022.8 hPa - - - -
1788479856 18.33° C 66% 1022.8 hPa - - - -
1788478956 18.89° C 64% 1023 hPa - - - -
1788478055 19.44° C 64% 1023.1 hPa - - - -
1788477155 19.44° C 64% 1023 hPa - - - -
1788476255 19.44° C 64% 1023.1 hPa - - - -
1788475355 20° C 65% 1023.2 hPa - - - -
1788474455 20° C 65% 1023.3 hPa - - - -
1788473555 20° C 64% 1023.4 hPa - - - -
1788472655 20.56° C 64% 1023.5 hPa - - - -
1788471754 21.11° C 62% 1023.6 hPa - - - -
1788470854 21.11° C 63% 1023.7 hPa - - - -
1788469954 21.11° C 62% 1023.7 hPa - - - -
1788469054 21.67° C 63% 1023.8 hPa - - - -

* Rain since midnight (hover to see other rain measurements)
** Current wind speed in m/s (hover to see current wind gust speed)